Regional Weather Roundup
Issued by NWS

Home | Current Version | Previous Version | Text Only | Print | Product List | Glossary Off
Versions: 1 2 3 4 5 6 7 8 9 10 11 12 13 14 15 16 17 18 19 20 21 22 23 24 25 26 27

000
ASUS45 KCYS 251910
RWRWY

WYOMING REGIONAL WEATHER ROUNDUP
NATIONAL WEATHER SERVICE CHEYENNE WY
100 PM MDT MON JUL 25 2016

NOTE:  "FAIR" INDICATES FEW OR NO CLOUDS BELOW 12,000 FEET
WITH NO SIGNIFICANT WEATHER AND/OR OBSTRUCTIONS TO VISIBILITY.

WYZ001-252000-
YELLOWSTONE NATIONAL PARK

CITY           SKY/WX    TMP DP  RH WIND       PRES   REMARKS
LK YELLOWSTONE   N/A     73  39  29 E6        30.37F
W YELLOWSTONE  NOT AVBL

$$
WYZ002>013-054>058-071-098>099-252000-
NORTHERN WYOMING

CITY           SKY/WX    TMP DP  RH WIND       PRES   REMARKS
JACKSON        SUNNY     81  34  18 SW7       30.26F
CODY           FAIR      88  37  16 NE12      30.12F
GREYBULL       FAIR      91  32  12 NW5       30.04F
WORLAND        FAIR      89  37  16 VRB6      30.06F
SHERIDAN       FAIR      95  39  14 VRB5      30.04F HX  91
BUFFALO        FAIR      92  33  12 E10G20    30.11F
GILLETTE       FAIR      91  36  14 SE5       30.08F
HULETT         FAIR      91  36  14 NW7       30.08F
NEWCASTLE      FAIR      86  48  26 SE15G25   30.11F

$$
WYZ014>020-022>026-101>103-252000-
CENTRAL WYOMING

CITY           SKY/WX    TMP DP  RH WIND       PRES   REMARKS
BIG PINEY      FAIR      84  28  13 SW9       30.31F
PINEDALE       FAIR      81  27  13 N10       30.32F
DUBOIS         FAIR      82  18   9 NW14G23   30.28F
LANDER         FAIR      86  34  15 E6        30.16F
RIVERTON       FAIR      84  34  16 VRB5      30.17F
CASPER         FAIR      89  40  17 VRB6      30.14F
DOUGLAS          N/A    N/A N/A N/A MISG      30.13F

$$
WYZ021-027>030-104>119-252000-
SOUTHERN WYOMING

CITY           SKY/WX    TMP DP  RH WIND       PRES   REMARKS
EVANSTON       FAIR      85  31  14 SW14G23   30.30F
KEMMERER         N/A    N/A N/A N/A CALM      30.33S
FORT BRIDGER   FAIR      86  27  11 NE5       30.32F
ROCK SPRINGS   FAIR      86  14   7 VRB3      30.29F
DIXON          FAIR      87  31  13 CALM      30.30F
RAWLINS        FAIR      89  13   6 W17G23    30.28F
SARATOGA       FAIR      88  19   8 W15G21    30.31S
LARAMIE        FAIR      85  23  10 N9        30.30F
CHEYENNE       FAIR      82  53  36 SE14G20   30.24F
TORRINGTON     FAIR      88  56  33 SE17G24   30.09F
PINE BLUFFS    FAIR      81  55  41 S13G20    30.19F

$$




USA.gov is the U.S. government's official web portal to all federal, state and local government web resources and services.